CW7500 Weather Reports


Display with metric or nautical units.
time (UTC)temp
F
wind
direction
speed
MPH
gust
MPH
rain 1hr
in
rain 24hr
in
rain mn
in
humidity
%
barometer
mb
20260508174530 61 342 3.0 6.0 0.00 0.00 0.00 29 1007.2
20260508174030 61 262 3.0 10.0 0.00 0.00 0.00 31 1007.2
20260508173530 61 234 3.0 6.0 0.00 0.00 0.00 30 1007.0
20260508173031 61 248 3.0 7.0 0.00 0.00 0.00 34 1007.2
20260508172030 61 182 2.0 9.0 0.00 0.00 0.00 28 1007.3
20260508171531 60 241 3.0 7.0 0.00 0.00 0.00 35 1007.3
20260508171031 60 312 2.0 7.0 0.00 0.00 0.00 33 1007.2
20260508170030 60 233 3.0 8.0 0.00 0.00 0.00 31 1007.3
20260508165530 59 116 2.0 6.0 0.00 0.00 0.00 35 1007.3
20260508165032 59 190 3.0 6.0 0.00 0.00 0.00 35 1007.6
20260508164530 59 233 4.0 13.0 0.00 0.00 0.00 33 1007.4
20260508164030 60 257 3.0 6.0 0.00 0.00 0.00 30 1007.4
20260508163531 61 326 2.0 6.0 0.00 0.00 0.00 34 1007.6
20260508163031 60 257 3.0 5.0 0.00 0.00 0.00 34 1007.6
20260508162530 59 244 2.0 8.0 0.00 0.00 0.00 35 1007.6
20260508162030 59 278 4.0 8.0 0.00 0.00 0.00 33 1007.6
20260508161530 60 220 3.0 6.0 0.00 0.00 0.00 36 1007.6
20260508161030 60 191 3.0 6.0 0.00 0.00 0.00 31 1007.4
20260508160530 59 222 2.0 7.0 0.00 0.00 0.00 33 1007.6
20260508160030 58 281 3.0 8.0 0.00 0.00 0.00 37 1007.6
20260508155530 58 242 3.0 7.0 0.00 0.00 0.00 36 1007.6
20260508155030 59 305 3.0 8.0 0.00 0.00 0.00 33 1007.6
20260508154531 59 279 2.0 5.0 0.00 0.00 0.00 35 1007.6
20260508154030 59 274 2.0 8.0 0.00 0.00 0.00 33 1007.7
20260508153530 58 37 3.0 7.0 0.00 0.00 0.00 37 1007.6
20260508153030 58 278 2.0 7.0 0.00 0.00 0.00 34 1007.8
20260508152530 57 282 2.0 7.0 0.00 0.00 0.00 38 1007.9
20260508152031 57 259 5.0 7.0 0.00 0.00 0.00 34 1008.0
20260508150530 57 25 3.0 8.0 0.00 0.00 0.00 38 1008.0
20260508150030 58 258 3.0 8.0 0.00 0.00 0.00 40 1008.0
20260508145030 58 233 2.0 6.0 0.00 0.00 0.00 35 1008.0
20260508144530 57 219 3.0 7.0 0.00 0.00 0.00 36 1008.2
20260508144030 58 225 2.0 6.0 0.00 0.00 0.00 37 1008.2
20260508143530 57 105 2.0 6.0 0.00 0.00 0.00 42 1008.2
20260508143030 57 185 2.0 7.0 0.00 0.00 0.00 35 1008.2
20260508142530 57 272 2.0 7.0 0.00 0.00 0.00 37 1008.2
20260508141529 56 247 2.0 5.0 0.00 0.00 0.00 33 1008.1
20260508141030 57 209 3.0 6.0 0.00 0.00 0.00 34 1008.3
20260508140530 57 230 3.0 7.0 0.00 0.00 0.00 33 1008.2
20260508140030 56 184 2.0 7.0 0.00 0.00 0.00 34 1008.3
20260508135529 57 249 3.0 7.0 0.00 0.00 0.00 32 1008.3
20260508135030 57 246 2.0 5.0 0.00 0.00 0.00 35 1008.5
20260508134530 55 353 3.0 10.0 0.00 0.00 0.00 32 1008.5
20260508134030 55 289 2.0 6.0 0.00 0.00 0.00 35 1008.6
20260508133029 55 263 2.0 6.0 0.00 0.00 0.00 34 1008.7
20260508132030 55 252 3.0 7.0 0.00 0.00 0.00 34 1008.6
20260508131530 54 286 3.0 6.0 0.00 0.00 0.00 34 1008.6
20260508130530 54 269 1.0 6.0 0.00 0.00 0.00 38 1008.6
20260508130029 54 303 2.0 6.0 0.00 0.00 0.00 36 1008.6
20260508125029 54 261 2.0 6.0 0.00 0.00 0.00 36 1008.6
20260508124029 53 338 2.0 6.0 0.00 0.00 0.00 39 1008.6
20260508123030 52 259 3.0 5.0 0.00 0.00 0.00 44 1008.6
20260508122030 51 256 1.0 6.0 0.00 0.00 0.00 44 1008.6
20260508121530 51 249 1.0 6.0 0.00 0.00 0.00 41 1008.7
20260508121029 50 248 2.0 3.0 0.00 0.00 0.00 45 1008.6
20260508120529 50 244 1.0 2.0 0.00 0.00 0.00 46 1008.6
20260508120029 49 288 2.0 3.0 0.00 0.00 0.00 50 1008.6
20260508115029 48 281 2.0 3.0 0.00 0.00 0.00 48 1008.7
20260508114530 48 246 2.0 5.0 0.00 0.00 0.00 49 1008.8
20260508114029 48 240 2.0 3.0 0.00 0.00 0.00 47 1008.7
20260508113530 47 243 2.0 3.0 0.00 0.00 0.00 49 1008.8
20260508113029 47 223 2.0 3.0 0.00 0.00 0.00 51 1008.6
20260508112529 47 276 1.0 2.0 0.00 0.00 0.00 50 1008.6
20260508112029 46 229 1.0 3.0 0.00 0.00 0.00 53 1008.6
20260508111530 46 250 1.0 2.0 0.00 0.00 0.00 53 1008.6
20260508111029 46 233 1.0 2.0 0.00 0.00 0.00 53 1008.6
20260508110529 45 224 1.0 1.0 0.00 0.00 0.00 53 1008.6
20260508110030 45 244 1.0 2.0 0.00 0.00 0.00 56 1008.6
20260508105530 45 255 1.0 2.0 0.00 0.00 0.00 53 1008.5
20260508104530 44 240 1.0 2.0 0.00 0.00 0.00 59 1008.3
20260508104029 43 246 1.0 2.0 0.00 0.02 0.00 59 1008.2
20260508102029 42 236 0.0 1.0 0.00 0.02 0.00 63 1008.0
20260508101530 42 234 1.0 1.0 0.00 0.02 0.00 61 1007.9
20260508101029 42 246 1.0 1.0 0.00 0.02 0.00 61 1007.8
20260508100529 42 241 1.0 2.0 0.00 0.02 0.00 60 1007.8
20260508100030 42 238 1.0 2.0 0.00 0.02 0.00 60 1007.8
20260508095529 42 255 1.0 2.0 0.00 0.02 0.00 60 1007.7
20260508095029 42 243 1.0 2.0 0.00 0.02 0.00 60 1007.7
20260508094530 42 255 1.0 2.0 0.00 0.02 0.00 62 1007.7
20260508094029 42 237 1.0 2.0 0.00 0.02 0.00 62 1007.6
20260508093529 42 253 1.0 2.0 0.00 0.02 0.00 62 1007.6
20260508093029 41 248 1.0 1.0 0.00 0.02 0.00 63 1007.4
20260508092530 41 244 1.0 1.0 0.00 0.02 0.00 61 1007.6
20260508092029 41 244 1.0 2.0 0.00 0.02 0.00 62 1007.6
20260508091530 41 258 1.0 2.0 0.00 0.02 0.00 61 1007.6
20260508091029 42 240 1.0 2.0 0.00 0.02 0.00 60 1007.6
20260508090029 42 227 1.0 2.0 0.00 0.02 0.00 59 1007.5
20260508085529 42 247 1.0 2.0 0.00 0.02 0.00 60 1007.5
20260508084029 42 242 1.0 3.0 0.00 0.02 0.00 60 1007.5
20260508083529 42 278 1.0 2.0 0.00 0.02 0.00 59 1007.6
20260508083029 42 249 2.0 3.0 0.00 0.04 0.00 59 1007.6
20260508082529 42 250 2.0 2.0 0.00 0.04 0.00 59 1007.5
20260508082029 42 253 1.0 2.0 0.00 0.04 0.00 58 1007.3
20260508081529 42 266 1.0 2.0 0.00 0.04 0.00 58 1007.3
20260508081029 41 240 1.0 2.0 0.00 0.04 0.00 59 1007.2
20260508080529 41 263 1.0 2.0 0.00 0.04 0.00 59 1007.2
20260508075529 41 238 1.0 3.0 0.00 0.04 0.00 60 1007.1
20260508074529 41 247 0.0 1.0 0.00 0.04 0.00 63 1006.8
20260508074028 41 263 0.0 1.0 0.00 0.04 0.00 62 1006.7
20260508073028 41 252 1.0 1.0 0.00 0.04 0.00 61 1006.6
20260508072529 42 294 0.0 1.0 0.00 0.04 0.00 59 1006.4
20260508072029 42 239 1.0 1.0 0.00 0.04 0.00 59 1006.3
20260508071528 42 252 1.0 1.0 0.00 0.04 0.00 58 1006.3
20260508071029 42 247 1.0 1.0 0.00 0.04 0.00 57 1006.2
20260508070029 43 246 0.0 2.0 0.00 0.04 0.00 58 1006.2
20260508065529 44 252 1.0 2.0 0.00 0.04 0.00 54 1006.2
20260508065028 44 243 1.0 1.0 0.00 0.04 0.00 53 1006.0
20260508064529 44 270 1.0 2.0 0.00 0.04 0.00 52 1006.1
20260508064029 44 267 1.0 2.0 0.00 0.04 0.00 53 1006.1
20260508063029 44 261 1.0 1.0 0.00 0.04 0.00 52 1006.2
20260508062528 44 264 1.0 1.0 0.00 0.04 0.00 53 1006.2
20260508060529 45 242 1.0 2.0 0.00 0.04 0.00 52 1006.2
20260508055528 45 268 2.0 5.0 0.00 0.04 0.00 50 1006.2
20260508054529 46 260 1.0 3.0 0.00 0.04 0.00 48 1006.2
20260508054029 46 272 1.0 5.0 0.00 0.04 0.00 49 1006.2
20260508053529 46 221 2.0 5.0 0.00 0.04 0.00 48 1006.2
20260508053029 46 243 2.0 5.0 0.00 0.04 0.00 48 1006.2
20260508052528 46 224 2.0 6.0 0.00 0.04 0.00 48 1006.3
20260508052029 46 256 3.0 7.0 0.00 0.04 0.00 47 1006.3
20260508051528 47 239 2.0 5.0 0.00 0.04 0.00 48 1006.4
20260508051029 47 254 2.0 6.0 0.00 0.04 0.00 48 1006.4
20260508050528 47 312 3.0 6.0 0.00 0.04 0.00 47 1006.4
20260508045529 47 247 2.0 3.0 0.00 0.04 0.00 47 1006.6
20260508044528 47 264 2.0 3.0 0.00 0.04 0.00 48 1006.5
20260508044028 47 253 2.0 3.0 0.00 0.04 0.00 48 1006.5
20260508043528 47 257 2.0 3.0 0.00 0.04 0.00 47 1006.5
20260508043028 48 266 2.0 3.0 0.00 0.04 0.00 46 1006.5
20260508042528 48 265 2.0 3.0 0.00 0.04 0.00 45 1006.5
20260508042028 48 246 1.0 3.0 0.00 0.04 0.00 46 1006.6
20260508041529 48 257 2.0 3.0 0.00 0.04 0.00 44 1006.6
20260508041028 48 263 2.0 3.0 0.00 0.04 0.00 45 1006.6
20260508040528 48 277 2.0 3.0 0.00 0.04 0.00 46 1006.6
20260508040028 48 256 2.0 3.0 0.00 0.04 0.00 45 1006.7
20260508035529 48 260 2.0 3.0 0.00 0.04 0.04 44 1006.8
20260508035028 49 247 2.0 5.0 0.00 0.04 0.04 44 1006.8
20260508034528 49 324 2.0 5.0 0.00 0.04 0.04 45 1006.8
20260508033529 49 258 2.0 3.0 0.00 0.04 0.04 44 1006.8
20260508033029 49 243 2.0 3.0 0.00 0.04 0.04 45 1006.8
20260508031528 49 245 2.0 5.0 0.00 0.04 0.04 45 1006.7
20260508030528 49 258 2.0 3.0 0.00 0.04 0.04 43 1006.9
20260508030028 50 253 2.0 5.0 0.00 0.04 0.04 44 1006.8
20260508025528 49 257 2.0 3.0 0.00 0.04 0.04 44 1006.7
20260508025028 50 232 2.0 5.0 0.00 0.04 0.04 43 1006.7
20260508024528 49 249 2.0 3.0 0.00 0.06 0.04 44 1006.7
20260508024028 49 242 2.0 3.0 0.00 0.06 0.04 44 1006.7
20260508023528 49 265 2.0 3.0 0.00 0.06 0.04 44 1006.7
20260508023029 50 265 2.0 3.0 0.00 0.06 0.04 46 1006.7
20260508022528 50 256 1.0 3.0 0.00 0.06 0.04 45 1006.7
20260508022028 50 231 2.0 3.0 0.00 0.06 0.04 45 1006.7
20260508021528 50 265 2.0 3.0 0.00 0.06 0.04 44 1006.7
20260508021028 50 253 2.0 5.0 0.00 0.06 0.04 44 1006.7
20260508020528 50 254 1.0 3.0 0.00 0.06 0.04 44 1006.8
20260508015529 50 254 1.0 3.0 0.00 0.06 0.04 44 1006.8
20260508015028 51 260 2.0 3.0 0.00 0.06 0.04 42 1006.8
20260508014028 51 257 2.0 3.0 0.00 0.06 0.04 42 1006.7
20260508013528 51 251 1.0 2.0 0.00 0.06 0.04 41 1006.7
20260508012528 52 259 2.0 2.0 0.00 0.06 0.04 40 1006.6
20260508012027 52 264 2.0 2.0 0.00 0.06 0.04 41 1006.6
20260508011028 52 262 2.0 5.0 0.00 0.08 0.04 39 1006.4
20260508010027 53 241 1.0 3.0 0.00 0.08 0.04 39 1006.2
20260508005027 53 236 2.0 3.0 0.00 0.08 0.04 38 1006.2
20260508004528 53 277 2.0 5.0 0.00 0.08 0.04 37 1005.9
20260508004028 53 243 2.0 8.0 0.00 0.08 0.04 38 1005.8
20260508003527 53 286 2.0 6.0 0.00 0.08 0.04 39 1005.7
20260508003028 53 239 3.0 6.0 0.00 0.08 0.04 39 1005.6
20260508002528 53 273 2.0 5.0 0.00 0.08 0.04 37 1005.5
20260508002028 53 251 1.0 6.0 0.00 0.10 0.04 37 1005.5
20260508001028 54 257 1.0 3.0 0.00 0.10 0.04 37 1005.5
20260508000528 54 271 2.0 3.0 0.00 0.10 0.04 36 1005.3
20260508000027 54 267 2.0 3.0 0.00 0.10 0.04 36 1005.4
20260507235528 55 258 2.0 3.0 0.00 0.10 0.04 37 1005.5
20260507235027 55 249 2.0 5.0 0.00 0.10 0.04 35 1005.4
20260507234528 55 256 1.0 3.0 0.00 0.10 0.04 36 1005.3
20260507233028 56 206 2.0 6.0 0.00 0.10 0.04 33 1005.1
20260507232527 56 264 3.0 6.0 0.00 0.10 0.04 32 1005.2
20260507232028 56 292 1.0 3.0 0.00 0.12 0.04 34 1005.1
20260507231527 56 253 2.0 7.0 0.00 0.12 0.04 32 1005.0
20260507231028 57 247 2.0 7.0 0.00 0.12 0.04 31 1005.0
20260507230527 57 266 3.0 8.0 0.00 0.12 0.04 29 1005.0
20260507230027 57 242 2.0 6.0 0.00 0.12 0.04 31 1005.0
20260507225528 57 294 3.0 8.0 0.00 0.12 0.04 30 1004.9
20260507225027 57 275 5.0 14.0 0.00 0.12 0.04 30 1004.8
20260507223527 58 264 3.0 6.0 0.00 0.12 0.04 30 1004.7
20260507223028 58 262 3.0 13.0 0.00 0.12 0.04 30 1004.7
20260507222528 58 266 5.0 8.0 0.00 0.13 0.04 30 1004.7
20260507222027 58 235 4.0 8.0 0.00 0.13 0.04 30 1004.6
20260507221528 59 310 3.0 8.0 0.00 0.13 0.04 30 1004.7
20260507221028 59 248 2.0 6.0 0.00 0.13 0.04 30 1004.7
20260507220527 59 283 3.0 7.0 0.00 0.13 0.04 29 1004.7
20260507220027 59 259 4.0 9.0 0.00 0.15 0.04 28 1004.6
20260507215528 59 258 2.0 10.0 0.00 0.15 0.04 30 1004.4
20260507215028 59 239 5.0 8.0 0.00 0.15 0.04 29 1004.6
20260507214527 59 235 3.0 8.0 0.00 0.15 0.04 28 1004.5
20260507213527 59 296 6.0 13.0 0.00 0.17 0.04 28 1004.3
20260507213027 60 251 3.0 9.0 0.00 0.17 0.04 27 1004.3
20260507212528 60 244 4.0 9.0 0.00 0.17 0.04 29 1004.2
20260507212027 61 244 5.0 7.0 0.00 0.17 0.04 28 1004.2
20260507211528 61 227 4.0 7.0 0.00 0.17 0.04 27 1004.1
20260507211027 61 239 3.0 7.0 0.00 0.17 0.04 28 1004.1
20260507210528 62 346 3.0 7.0 0.00 0.17 0.04 26 1004.0
20260507210027 62 111 2.0 6.0 0.00 0.17 0.04 28 1004.0
20260507205528 62 261 3.0 7.0 0.00 0.17 0.04 26 1004.0
20260507205027 62 43 2.0 9.0 0.00 0.17 0.04 28 1003.8
20260507204527 62 130 3.0 8.0 0.00 0.17 0.04 30 1003.9
20260507204028 62 245 4.0 9.0 0.00 0.17 0.04 30 1003.9
20260507203028 62 248 4.0 8.0 0.00 0.17 0.04 28 1003.9
20260507202527 63 50 2.0 5.0 0.00 0.17 0.04 28 1003.9
20260507202027 63 278 3.0 7.0 0.00 0.17 0.04 27 1003.9
20260507201527 63 238 3.0 6.0 0.00 0.17 0.04 29 1003.8
20260507201027 63 266 2.0 9.0 0.00 0.17 0.04 27 1003.8
20260507200527 63 251 4.0 8.0 0.00 0.17 0.04 28 1003.9
20260507200027 63 264 2.0 9.0 0.00 0.17 0.04 27 1003.8
20260507195526 64 251 3.0 5.0 0.00 0.17 0.04 32 1004.0
20260507195028 63 249 3.0 6.0 0.00 0.19 0.04 28 1003.9
20260507194527 64 245 2.0 8.0 0.00 0.19 0.04 26 1004.0
20260507194027 64 277 2.0 5.0 0.00 0.21 0.04 31 1004.1
20260507193527 64 246 3.0 5.0 0.00 0.21 0.04 26 1004.2
20260507192527 63 23 2.0 5.0 0.00 0.21 0.04 26 1004.1
20260507191527 63 188 3.0 6.0 0.00 0.21 0.04 25 1004.3
20260507191027 63 244 3.0 7.0 0.00 0.23 0.04 30 1004.3
20260507190527 64 251 2.0 7.0 0.00 0.23 0.04 25 1004.4
20260507190027 64 249 3.0 7.0 0.00 0.23 0.04 26 1004.4
20260507185526 64 253 2.0 5.0 0.00 0.23 0.04 29 1004.4
20260507185027 63 231 2.0 6.0 0.00 0.23 0.04 31 1004.4
20260507184527 64 248 2.0 6.0 0.00 0.23 0.04 27 1004.5
20260507184027 63 216 1.0 7.0 0.00 0.23 0.04 27 1004.6
20260507183527 63 277 3.0 10.0 0.00 0.23 0.04 29 1004.7
20260507183027 63 243 5.0 8.0 0.00 0.23 0.04 27 1004.7
20260507182527 62 141 2.0 8.0 0.00 0.23 0.04 33 1004.7
20260507182027 63 257 2.0 10.0 0.00 0.23 0.04 29 1004.7
20260507181527 62 22 2.0 8.0 0.00 0.23 0.04 29 1004.8
20260507181026 62 216 2.0 10.0 0.00 0.23 0.04 26 1004.8
20260507180527 62 158 3.0 8.0 0.00 0.23 0.04 29 1004.9
20260507180027 63 267 2.0 7.0 0.00 0.23 0.04 29 1005.2
20260507175526 63 121 3.0 8.0 0.00 0.23 0.04 32 1005.2